Вернуться в каталог

HULIANWANG DIGUI-127

АктивенСвязьLEO
NORAD 67067·PAYLOAD·🇨🇳 China

Запущен Dec 11, 2025 с Wenchang Space Launch Site

Loading…

Ближайшие Пролёты (ближайшие 24 часа)

TLE

СвежийSource: Space-Track

Эпоха: Sep 13, 2026, 22:50 UTC

1 67067U 25295J   26256.95174424 -.00000117  00000-0  14809-4 0  9992
2 67067  50.0006  66.7691 0000804  58.4005 301.6945 13.29324212 37319

Отслеживайте HULIANWANG DIGUI-127 в реальном времени с AllMySat

Download on the App Store